Home > Weather > Beira > Past weeks

Flag for Mozambique Weather for the Past 2 Weeks in Beira, Mozambique

Now
82 °F

Passing clouds.


Feels Like: 88 °F
Forecast: 76 / 89 °F
Wind: 7 mph from Northeast

Location: Beira Airport

Current Time: Feb 10, 2016 at 10:17:47 PM

Latest Report: Feb 10, 2016 at 8:00 PM


Visibility: N/A

Pressure: 29.74 "Hg

Humidity: 74%

Dew point: 73 °F

Location of BeiraLocation

Historic Weather in Beira — Graph

°F

Beira Temperature Yesterday

Maximum temperature yesterday: 88 °F (at 2:00 PM)
Minimum temperature yesterday: 81 °F (at 7:00 AM)
Average temperature yesterday: 84 °F

High & Low Weather Summary for the Past Weeks

 TemperatureHumidityPressure
High91 °F (Feb 3, 1:00 PM)100% (Jan 27, 5:00 AM)29.95 "Hg (Jan 27, 5:00 AM)
Low75 °F (Feb 7, 5:00 AM)21% (Feb 10, 7:00 AM)29.71 "Hg (Feb 3, 5:00 PM)
Average84 °F75%29.84 "Hg
* Reported Jan 26 8:00 PM — Feb 10 8:00 PM, Beira, Weather by CustomWeather, © 2016

Note: Actual official high and low records may vary slightly from our data, if they occured in-between our weather recording intervals... More about our weather records

Advertising

Beira Weather History for the Previous 24 Hours

 ConditionsComfort  
Time TempWeatherWind HumidityBarometerVisibility
8:00 PM
Wed, Feb 10
82 °FPassing clouds.7 mph74%29.74 "HgN/A
7:00 PM82 °FPassing clouds.12 mph70%29.74 "HgN/A
6:00 PM86 °FPassing clouds.13 mph62%29.74 "HgN/A
5:00 PM86 °FPassing clouds.14 mph62%29.74 "HgN/A
4:00 PM84 °FPassing clouds.12 mph66%29.74 "HgN/A
3:00 PM86 °FPassing clouds.12 mph62%29.77 "HgN/A
2:00 PM86 °FPassing clouds.13 mph62%29.77 "HgN/A
1:00 PM86 °FPassing clouds.14 mph59%29.80 "HgN/A
12:00 PM86 °FPassing clouds.12 mph62%29.83 "HgN/A
11:00 AM84 °FScattered clouds.10 mph66%29.86 "HgN/A
10:00 AM84 °FScattered clouds.13 mph66%29.86 "HgN/A
9:00 AM82 °FScattered clouds.15 mph74%29.86 "HgN/A
8:00 AM82 °FPartly sunny.12 mph70%29.86 "HgN/A
7:00 AM79 °FScattered clouds.8 mph21%29.86 "HgN/A
6:00 AM77 °FPassing clouds.5 mph89%29.86 "HgN/A
5:00 AM77 °FPassing clouds.5 mph89%29.83 "HgN/A
4:00 AM79 °FPassing clouds.7 mph84%29.83 "HgN/A
1:00 AM81 °FPassing clouds.14 mph79%29.83 "HgN/A
12:00 AM81 °FPassing clouds.8 mph79%29.83 "HgN/A
11:00 PM
Tue, Feb 9
81 °FPassing clouds.7 mph79%29.83 "HgN/A
10:00 PM81 °FPassing clouds.13 mph84%29.86 "HgN/A
Weather by CustomWeather, © 2016

See weather overviewHow to use our weather pages